When you browse on this site, cookies collect data to enhance your experience and personalize the content and advertising you see.
Visit our Privacy Policy to learn more. By continuing to use the site, you agree to this use of cookies and data.
  • In Deutschland
  • Länderverzeichnis
  • Für 7 Tage
  • Wassertemperatur
  • Wetterkarte
  • Widgets
  • user-avatar
    Anmelden

    Stündliche Wetter Winchester

    Heute, 25 Januar, Samstag

    Zeit Temperatur Niederschläge Wind Luftdruck Luftfeuchtigkeit
    00:00 +6°C° 0 mm 1 m/S 760 mmHg 90%
    01:00 +5°C° 0 mm 1 m/S 760 mmHg 91%
    02:00 +4°C° 0 mm 1 m/S 759 mmHg 91%
    03:00 +4°C° 0 mm 1 m/S 759 mmHg 92%
    04:00 +4°C° 0 mm 1 m/S 759 mmHg 92%
    05:00 +3°C° 0 mm 1 m/S 758 mmHg 92%
    06:00 +4°C° 0 mm 1 m/S 758 mmHg 94%
    07:00 +3°C° 0 mm 2 m/S 758 mmHg 94%
    08:00 +3°C° 0 mm 2 m/S 758 mmHg 94%
    09:00 +4°C° 0 mm 2 m/S 758 mmHg 94%
    10:00 +4°C° 0 mm 3 m/S 758 mmHg 91%
    11:00 +6°C° 0 mm 4 m/S 758 mmHg 89%
    12:00 +7°C° 0 mm 3 m/S 758 mmHg 86%
    13:00 +8°C° 0 mm 3 m/S 757 mmHg 87%
    14:00 +7°C° 0 mm 4 m/S 757 mmHg 88%
    15:00 +7°C° 0 mm 4 m/S 756 mmHg 89%
    16:00 +7°C° 0 mm 3 m/S 756 mmHg 91%
    17:00 +7°C° 0 mm 3 m/S 756 mmHg 93%
    18:00 +6°C° 0 mm 2 m/S 756 mmHg 96%
    19:00 +6°C° 0 mm 2 m/S 755 mmHg 96%
    20:00 +6°C° 0 mm 2 m/S 755 mmHg 96%
    21:00 +6°C° 0 mm 2 m/S 755 mmHg 96%
    22:00 +7°C° 0 mm 3 m/S 754 mmHg 96%
    23:00 +7°C° 0 mm 3 m/S 754 mmHg 96%

    Morgen, 26 Januar, Sonntag

    Zeit Temperatur Niederschläge Wind Luftdruck Luftfeuchtigkeit
    00:00 +7°C° 0 mm 3 m/S 754 mmHg 96%
    01:00 +6°C° 0 mm 4 m/S 753 mmHg 96%
    02:00 +6°C° 0 mm 4 m/S 753 mmHg 96%
    03:00 +6°C° 0 mm 4 m/S 753 mmHg 96%
    04:00 +6°C° 0 mm 4 m/S 753 mmHg 96%
    05:00 +5°C° 0 mm 4 m/S 752 mmHg 95%
    06:00 +5°C° 0 mm 4 m/S 752 mmHg 94%
    07:00 +5°C° 0.1 mm 4 m/S 752 mmHg 93%
    08:00 +6°C° 0.1 mm 4 m/S 752 mmHg 92%
    09:00 +6°C° 0.1 mm 4 m/S 752 mmHg 91%
    10:00 +7°C° 0 mm 6 m/S 752 mmHg 89%
    11:00 +8°C° 0 mm 7 m/S 751 mmHg 88%
    12:00 +7°C° 0 mm 8 m/S 751 mmHg 86%
    13:00 +7°C° 1.5 mm 8 m/S 750 mmHg 88%
    14:00 +7°C° 1.5 mm 8 m/S 750 mmHg 90%
    15:00 +7°C° 1.5 mm 8 m/S 750 mmHg 93%
    16:00 +8°C° 2.1 mm 7 m/S 749 mmHg 93%
    17:00 +8°C° 2.1 mm 6 m/S 749 mmHg 94%
    18:00 +7°C° 2.1 mm 5 m/S 748 mmHg 95%
    19:00 +7°C° 1.6 mm 4 m/S 748 mmHg 95%
    20:00 +7°C° 1.6 mm 3 m/S 748 mmHg 94%
    21:00 +7°C° 1.6 mm 2 m/S 748 mmHg 94%
    22:00 +6°C° 0 mm 2 m/S 748 mmHg 94%
    23:00 +5°C° 0 mm 3 m/S 748 mmHg 95%

    übermorgen, 27 Januar, Montag

    Zeit Temperatur Niederschläge Wind Luftdruck Luftfeuchtigkeit
    00:00 +4°C° 0 mm 3 m/S 748 mmHg 96%
    01:00 +5°C° 0.1 mm 3 m/S 748 mmHg 94%
    02:00 +5°C° 0.1 mm 4 m/S 748 mmHg 93%
    03:00 +5°C° 0.1 mm 5 m/S 748 mmHg 91%
    04:00 +5°C° 0 mm 5 m/S 747 mmHg 90%
    05:00 +5°C° 0 mm 5 m/S 747 mmHg 89%
    06:00 +5°C° 0 mm 5 m/S 746 mmHg 88%
    07:00 +5°C° 0.2 mm 5 m/S 746 mmHg 89%
    08:00 +5°C° 0.2 mm 5 m/S 746 mmHg 90%
    09:00 +5°C° 0.2 mm 5 m/S 746 mmHg 91%
    10:00 +6°C° 0.4 mm 5 m/S 746 mmHg 88%
    11:00 +5°C° 0.4 mm 6 m/S 745 mmHg 84%
    12:00 +7°C° 0.4 mm 6 m/S 745 mmHg 81%
    13:00 +7°C° 0.2 mm 6 m/S 745 mmHg 81%
    14:00 +7°C° 0.2 mm 5 m/S 744 mmHg 81%
    15:00 +6°C° 0.2 mm 5 m/S 743 mmHg 82%
    16:00 +6°C° 0.2 mm 4 m/S 743 mmHg 84%
    17:00 +5°C° 0.2 mm 4 m/S 742 mmHg 86%
    18:00 +5°C° 0.2 mm 3 m/S 742 mmHg 89%
    19:00 +4°C° 0.2 mm 4 m/S 741 mmHg 89%
    20:00 +4°C° 0.2 mm 4 m/S 740 mmHg 89%
    21:00 +4°C° 0.2 mm 4 m/S 740 mmHg 89%
    22:00 +3°C° 0.3 mm 5 m/S 739 mmHg 88%
    23:00 +3°C° 0.3 mm 6 m/S 738 mmHg 87%

    28 Januar, Dienstag

    Zeit Temperatur Niederschläge Wind Luftdruck Luftfeuchtigkeit
    00:00 +3°C° 0.3 mm 6 m/S 737 mmHg 87%
    01:00 +3°C° 0 mm 6 m/S 737 mmHg 87%
    02:00 +2°C° 0 mm 6 m/S 737 mmHg 87%
    03:00 0°C° 0 mm 7 m/S 737 mmHg 88%
    04:00 0°C° 0 mm 7 m/S 738 mmHg 85%
    05:00 -1°C° 0 mm 7 m/S 739 mmHg 82%
    06:00 -1°C° 0 mm 7 m/S 740 mmHg 80%
    07:00 -1°C° 0 mm 7 m/S 741 mmHg 79%
    08:00 -1°C° 0 mm 6 m/S 742 mmHg 79%
    09:00 -1°C° 0 mm 6 m/S 743 mmHg 78%
    10:00 0°C° 0 mm 7 m/S 743 mmHg 76%
    11:00 +1°C° 0 mm 8 m/S 744 mmHg 74%
    12:00 +3°C° 0 mm 9 m/S 744 mmHg 72%
    13:00 +4°C° 0.2 mm 8 m/S 744 mmHg 73%
    14:00 +2°C° 0.2 mm 8 m/S 744 mmHg 74%
    15:00 +3°C° 0.2 mm 7 m/S 744 mmHg 74%
    16:00 +2°C° 0 mm 7 m/S 744 mmHg 76%
    17:00 +2°C° 0 mm 7 m/S 745 mmHg 78%
    18:00 +1°C° 0 mm 6 m/S 745 mmHg 79%
    19:00 +1°C° 0 mm 6 m/S 746 mmHg 80%
    20:00 -1°C° 0 mm 6 m/S 746 mmHg 81%
    21:00 0°C° 0 mm 5 m/S 747 mmHg 82%
    22:00 0°C° 0 mm 5 m/S 747 mmHg 83%
    23:00 0°C° 0 mm 5 m/S 748 mmHg 83%

    29 Januar, Mittwoch

    Zeit Temperatur Niederschläge Wind Luftdruck Luftfeuchtigkeit
    00:00 -1°C° 0 mm 5 m/S 748 mmHg 84%
    01:00 -1°C° 0 mm 5 m/S 749 mmHg 84%
    02:00 -1°C° 0 mm 5 m/S 749 mmHg 84%
    03:00 -1°C° 0 mm 4 m/S 750 mmHg 84%
    04:00 -1°C° 0 mm 4 m/S 750 mmHg 84%
    05:00 -1°C° 0 mm 4 m/S 751 mmHg 84%
    06:00 -1°C° 0 mm 4 m/S 751 mmHg 84%
    07:00 -1°C° 0 mm 4 m/S 752 mmHg 84%
    08:00 0°C° 0 mm 4 m/S 752 mmHg 84%
    09:00 0°C° 0 mm 4 m/S 753 mmHg 84%
    10:00 +1°C° 0 mm 5 m/S 753 mmHg 80%
    11:00 +3°C° 0 mm 5 m/S 754 mmHg 76%
    12:00 +4°C° 0 mm 6 m/S 754 mmHg 72%
    13:00 +6°C° 0 mm 5 m/S 754 mmHg 74%
    14:00 +6°C° 0 mm 5 m/S 755 mmHg 76%
    15:00 +6°C° 0 mm 4 m/S 755 mmHg 77%
    16:00 +5°C° 0 mm 4 m/S 755 mmHg 82%
    17:00 +4°C° 0 mm 3 m/S 755 mmHg 86%
    18:00 +3°C° 0 mm 3 m/S 755 mmHg 90%
    19:00 +3°C° 0 mm 3 m/S 755 mmHg 91%
    20:00 +3°C° 0 mm 3 m/S 755 mmHg 91%
    21:00 +3°C° 0 mm 3 m/S 755 mmHg 92%
    22:00 +3°C° 0 mm 3 m/S 755 mmHg 92%
    23:00 +3°C° 0 mm 3 m/S 755 mmHg 93%

    30 Januar, Donnerstag

    Zeit Temperatur Niederschläge Wind Luftdruck Luftfeuchtigkeit
    00:00 +3°C° 0 mm 3 m/S 755 mmHg 93%
    01:00 +3°C° 0 mm 3 m/S 755 mmHg 94%
    02:00 +3°C° 0 mm 3 m/S 755 mmHg 94%
    03:00 +3°C° 0 mm 3 m/S 754 mmHg 95%
    04:00 +3°C° 0 mm 3 m/S 754 mmHg 95%
    05:00 +3°C° 0 mm 3 m/S 754 mmHg 95%
    06:00 +3°C° 0 mm 3 m/S 754 mmHg 95%
    07:00 +4°C° 0 mm 3 m/S 753 mmHg 94%
    08:00 +4°C° 0 mm 4 m/S 753 mmHg 94%
    09:00 +4°C° 0 mm 4 m/S 753 mmHg 93%
    10:00 +5°C° 0.1 mm 5 m/S 752 mmHg 90%
    11:00 +6°C° 0.1 mm 5 m/S 752 mmHg 87%
    12:00 +5°C° 0.1 mm 6 m/S 751 mmHg 84%
    13:00 +6°C° 0.3 mm 5 m/S 750 mmHg 88%
    14:00 +6°C° 0.3 mm 5 m/S 749 mmHg 91%
    15:00 +6°C° 0.3 mm 5 m/S 749 mmHg 94%
    16:00 +6°C° 0.2 mm 4 m/S 748 mmHg 96%
    17:00 +7°C° 0.2 mm 4 m/S 748 mmHg 97%
    18:00 +7°C° 0.2 mm 4 m/S 748 mmHg 98%
    19:00 +7°C° 0.1 mm 4 m/S 748 mmHg 98%
    20:00 +9°C° 0.1 mm 3 m/S 748 mmHg 98%
    21:00 +9°C° 0.1 mm 3 m/S 748 mmHg 98%
    22:00 +9°C° 0 mm 3 m/S 748 mmHg 98%
    23:00 +10°C° 0 mm 3 m/S 748 mmHg 98%
    Mehr zeigen